Dewpoint
-2 -2 -2 -1 0 1 1 2 0 2 3 3 3 3 2 0 -0 -1 -1 -4 -3 -2 -3 -4 -6 -7 -8 -4 -2 0 -1 0 2 1 -3 -3 -2 0 1 1 -1 2 2 1
-1 -1 -2 -1 -1 1 1 2 1 2 2 3 1 1 1 1 0 -0 -0 -1 -2 -3 -3 -2 -4 -5 -5 -4 -2 -1 -2 0 1 -2 -6 -5 -2 -3 -3 -2 -1 2 3 1
-2 -2 -0 -1 -1 -1 1 1 1 1 2 2 1 2 3 3 0 1 1 1 -0 -0 0 -2 -1 -1 -3 -3 -3 -2 -1 0 -1 0 -2 -5 -1 -1 -1 -1 2 1 1 -1
-4 -4 -5 -3 -2 -1 -1 1 1 1 2 1 2 0 1 1 2 2 3 3 2 2 4 2 1 -1 0 -1 -1 0 -1 2 1 -0 -0 0 1 1 0 1 0 2 -1 -2
-7 -6 -6 -5 -3 -1 -1 1 0 0 0 0 1 0 3 1 -0 -0 -1 1 1 2 3 2 3 3 2 2 -1 -0 -1 4 2 3 1 1 1 -1 -1 -2 -3 -2 -2 -1
-6 -7 -11 -11 -7 -2 -0 -0 -0 -0 -1 -1 1 2 1 1 1 -0 -1 0 1 2 0 -1 -0 2 2 1 1 1 1 4 3 3 -1 -0 1 -3 -3 -3 -3 -3 -2 -5
-9 -9 -7 -7 -10 -6 -3 -1 -2 -1 -0 1 1 0 0 -0 -1 2 -0 -1 0 -2 -2 -3 -3 -1 -1 -1 -1 -1 -1 -0 3 3 0 3 -3 -5 -5 -4 -5 -5 -6 -6
-16 -15 -13 -11 -7 -8 -6 -3 -3 -3 -3 -2 -3 -4 -4 -4 -5 -5 -6 -6 -5 -5 -5 -1 -1 -2 -3 -2 -2 -2 -2 -1 2 3 2 -1 -2 -5 -5 -5 -4 -7 -7 -6
-6 -8 -10 -11 -11 -6 -5 -7 -3 -3 -2 -4 -5 -4 -4 -4 -5 -6 -7 -11 -6 -6 -3 -1 -0 -1 -2 -4 -2 -4 -2 -2 1 2 4 3 -4 -6 -8 -9 -3 -9 -6 -6
-5 -5 -5 -6 -7 -9 -6 -3 -5 -5 -4 -7 -7 -6 -5 -6 -5 -4 -5 -4 -4 -6 -2 -1 -1 -1 -3 -0 -2 -2 -1 0 3 3 4 2 -3 -5 -6 -3 -4 -6 -7 -6
-7 -7 -6 -5 -5 -6 -5 -7 -6 -4 -4 -6 -8 -7 -6 -5 -5 -4 -6 -6 -7 -4 -2 -2 -2 -1 -3 -3 -4 -2 -3 -1 1 2 3 3 -5 -6 -4 -7 -7 -7 -7 -7
-8 -8 -8 -7 -7 -7 -6 -5 -5 -5 -3 -4 -6 -6 -6 -5 -6 -6 -6 -6 -6 -4 -0 -1 -1 -0 -2 -2 -2 -5 -2 -4 -1 -0 -0 -4 -5 -6 -6 -7 -7 -7 -7 -8
-8 -7 -5 -7 -7 -7 -5 -4 -4 -4 -4 -6 -8 -13 -13 -10 -12 -8 -5 -5 -6 -6 -7 -5 -3 -2 0 -1 -1 -3 -4 -5 -3 -3 -5 -4 -5 -6 -6 -5 -6 -6 -7 -8
-7 -7 -6 -5 -5 -5 -5 -5 -5 -5 -4 -4 -7 -10 -11 -13 -12 -12 -8 -8 -6 -5 -4 -3 -2 -3 -1 0 0 -1 -4 -4 -3 -3 -5 -5 -5 -6 -7 -7 -6 -7 -7 -7
-8 -7 -9 -6 -7 -7 -6 -6 -7 -7 -6 -6 -8 -9 -13 -15 -11 -12 -9 -6 -5 -4 -3 -3 -3 -4 -3 -3 -2 -2 -2 -2 -2 -2 -4 -5 -6 -6 -7 -7 -7 -7 -7 -8
-9 -9 -10 -9 -7 -8 -7 -7 -11 -13 -8 -5 -5 -8 -7 -8 -11 -10 -8 -9 -4 -3 -3 -2 -3 -4 -1 0 -1 -5 -5 -4 -4 -4 -5 -5 -6 -7 -7 -7 -7 -7 -7 -8
-9 -9 -8 -9 -8 -6 -5 -9 -9 -9 -6 -4 -5 -6 -11 -10 -12 -11 -7 -5 -5 -4 -3 -3 -3 -2 -2 1 1 -3 -4 -4 -3 -3 -4 -7 -7 -7 -7 -7 -7 -6 -6 -7
-7 -7 -9 -8 -7 -7 -6 -9 -9 -9 -7 -7 -6 -8 -8 -11 -9 -3 -2 -1 -2 -2 -3 -2 -2 -2 0 1 -2 -3 -4 -4 -2 -3 -6 -7 -8 -8 -7 -7 -6 -6 -6 -6
-8 -7 -6 -6 -6 -5 -10 -13 -15 -13 -6 -6 -6 -8 -8 -8 -4 -3 -2 -2 -1 -1 -1 0 0 0 1 -1 -1 -2 -4 -2 -4 -6 -5 -7 -7 -6 -6 -6 -6 -6 -6 -6
-7 -8 -6 -6 -8 -10 -12 -11 -7 -6 -5 -5 -7 -11 -8 -10 -7 -3 -1 -1 -0 0 -0 0 1 -0 -3 -4 -4 -4 -5 -3 -4 -3 -5 -5 -5 -6 -5 -5 -5 -6 -6 -6
-7 -6 -6 -9 -8 -8 -9 -10 -6 -5 -5 -4 -5 -7 -7 -8 -6 -6 -6 -1 -0 1 -0 1 1 0 -3 -4 -3 -4 -5 -4 -4 -4 -6 -6 -6 -6 -6 -6 -6 -6 -6 -5
-7 -7 -7 -7 -8 -9 -8 -10 -9 -5 -4 -5 -4 -5 -6 -7 -7 -4 -3 -1 -1 1 -1 1 -0 -2 -3 -3 -3 -3 -4 -4 -5 -5 -5 -6 -6 -5 -5 -6 -6 -6 -5 -4
-6 -6 -7 -7 -8 -7 -8 -12 -11 -6 -4 -2 -2 -2 -1 -3 -3 -2 -1 -0 1 -2 -1 -1 -2 -3 -4 -4 -3 -3 -3 -3 -4 -4 -4 -5 -5 -5 -5 -6 -5 -5 -4 -4
-6 -7 -8 -8 -14 -10 -11 -10 -5 -6 -4 -4 -4 -2 -1 -1 -2 -1 0 -2 -2 -3 -3 -3 -5 -4 -4 -4 -4 -4 -4 -4 -4 -4 -4 -4 -5 -5 -5 -5 -4 -5 -5 -5
-6 -7 -9 -12 -10 -7 -6 -6 -7 -6 -6 -5 -6 -5 -2 -1 -1 -0 -2 -2 -3 -3 -3 -3 -4 -4 -4 -4 -4 -4 -4 -4 -4 -5 -5 -5 -5 -5 -4 -4 -5 -5 -5 -5
-6 -7 -8 -9 -8 -8 -9 -9 -7 -7 -6 -6 -6 -4 -1 -0 0 -1 -2 -4 -3 -3 -4 -4 -4 -4 -4 -4 -4 -4 -4 -4 -5 -5 -5 -5 -5 -5 -5 -5 -5 -5 -5 -5
-7 -8 -9 -10 -9 -9 -9 -6 -6 -6 -6 -6 -4 -2 -1 -0 -3 -1 -4 -3 -3 -3 -4 -4 -4 -4 -4 -4 -4 -4 -5 -5 -6 -6 -6 -6 -5 -5 -5 -5 -5 -5 -4 -4
Wind_Speed
9 7 3 4 5 5 4 6 2 6 15 5 4 2 3 3 7 7 3 1 3 3 2 2 4 6 6 5 6 6 4 3 4 9 8 4 6 7 6 4 5 5 3 19
9 7 4 4 4 3 5 4 3 5 14 2 6 3 3 5 7 7 3 3 4 2 3 2 5 3 7 1 5 5 3 2 4 8 5 4 2 1 3 2 1 10 9 13
8 7 7 6 4 2 7 3 2 4 11 2 2 1 1 3 6 10 9 4 5 3 4 4 4 3 3 15 4 10 3 5 7 9 8 5 11 11 13 7 6 14 19 31
8 8 7 5 4 1 4 2 1 3 3 4 4 4 1 1 2 5 9 2 4 2 4 4 7 4 5 8 7 2 1 5 5 6 8 9 17 18 19 15 22 13 30 22
9 9 10 7 5 3 2 1 0 2 1 1 2 6 5 7 8 2 3 5 9 4 4 2 3 5 1 4 4 5 5 3 3 5 9 13 17 18 24 22 23 19 25 28
10 10 10 11 7 3 1 4 4 3 3 1 2 3 3 2 0 9 16 6 6 6 9 10 10 13 10 15 7 3 3 2 1 12 3 7 13 12 3 5 7 7 7 14
10 11 11 12 9 4 2 2 4 1 1 3 1 1 1 2 4 4 10 11 4 5 11 22 17 16 23 21 16 19 10 8 3 6 3 16 8 13 17 13 17 10 11 9
8 8 9 9 9 7 3 2 1 2 2 3 4 4 1 8 12 8 11 23 22 22 17 4 5 4 4 8 14 15 19 9 4 6 5 14 12 10 4 4 14 7 5 6
8 8 7 7 7 7 6 2 3 3 2 4 10 1 3 1 2 5 12 20 12 8 4 3 6 5 2 5 4 2 4 13 7 3 4 6 5 1 3 2 11 3 1 6
11 10 9 7 7 7 7 4 4 3 3 11 14 6 3 3 3 3 5 7 6 6 3 3 5 8 5 5 7 5 1 2 12 10 8 8 7 7 3 2 5 4 4 3
13 12 13 12 13 11 9 11 8 8 5 14 21 21 12 12 11 3 7 8 4 2 2 3 4 5 7 7 8 7 9 5 4 5 6 11 4 4 7 4 9 8 8 5
16 15 15 14 14 14 13 17 13 11 11 12 18 23 27 27 28 19 14 13 13 4 4 2 3 4 3 6 6 6 7 12 5 8 6 6 6 12 14 17 17 13 12 7
16 14 14 16 14 11 12 13 13 16 17 22 24 30 23 16 20 24 21 22 23 14 16 4 3 7 3 5 8 4 3 7 8 10 12 23 34 40 39 33 23 20 14 10
19 18 17 15 14 15 14 15 16 17 11 6 16 24 24 21 17 20 31 38 24 22 16 10 5 5 9 4 3 3 6 4 5 11 14 26 33 30 30 32 22 17 12 10
18 19 20 19 19 18 17 18 20 20 18 6 17 29 39 39 36 36 33 33 38 27 12 8 10 11 10 15 7 15 11 8 6 9 21 16 25 29 27 17 14 12 10 9
18 20 20 21 20 18 15 11 13 13 22 11 3 11 16 16 29 32 32 35 35 32 15 9 13 23 9 4 10 36 29 34 34 30 33 34 41 20 10 10 9 9 9 8
16 16 17 18 19 19 18 9 8 9 9 7 6 7 7 7 14 22 21 22 26 29 25 19 25 15 17 5 14 5 17 22 24 30 28 20 23 13 16 11 8 8 8 6
17 17 16 17 18 20 24 29 27 25 26 11 3 4 8 9 10 5 8 11 20 19 16 13 17 14 14 9 14 27 36 32 28 29 26 31 22 18 16 13 9 8 8 7
14 18 17 18 19 21 28 21 18 20 19 5 6 4 5 8 7 8 5 9 3 9 6 6 13 7 8 9 14 22 26 29 31 26 19 22 16 13 13 11 10 11 10 10
14 14 6 6 8 14 15 11 6 9 15 15 7 18 9 11 9 4 4 7 4 3 5 10 4 10 24 31 32 23 26 23 29 22 21 20 20 18 15 15 12 11 9 8
9 6 7 6 4 3 4 4 5 8 4 9 16 30 18 20 10 8 8 3 3 3 4 5 3 4 17 33 36 34 33 20 25 25 19 15 15 14 13 12 10 11 11 10
5 4 6 5 5 4 1 3 6 4 4 7 6 12 19 11 17 9 7 4 3 5 6 3 3 4 13 22 33 33 34 21 21 21 15 12 11 11 11 11 11 11 10 10
13 9 6 3 3 3 5 5 5 4 5 8 14 7 5 12 16 6 4 6 5 3 1 4 4 2 1 4 13 22 23 18 18 16 13 13 13 12 11 10 10 9 8 9
7 5 5 5 3 5 5 3 3 15 14 23 26 11 5 9 5 3 4 3 1 1 2 5 2 4 7 8 9 11 14 14 14 14 14 14 13 12 10 8 7 6 6 8
5 5 5 6 13 6 8 9 11 15 22 18 14 11 8 3 5 3 3 1 4 5 4 2 1 5 6 7 7 8 10 11 11 10 10 10 10 9 8 8 7 7 7 8
4 5 3 11 3 10 11 14 13 16 16 23 11 4 5 6 3 4 6 5 5 3 2 2 5 6 6 8 8 9 10 10 11 11 11 12 12 11 12 12 11 11 11 12
4 7 15 17 12 13 16 6 14 13 13 2 6 5 5 0 2 3 3 3 1 2 5 6 6 7 9 9 10 11 11 12 13 14 14 15 16 15 16 17 17 15 15 16
Wind_Direction
345 338 326 254 258 255 205 166 191 198 178 200 192 192 217 330 279 330 333 235 215 228 256 263 240 231 220 212 172 177 221 183 245 225 252 198 190 208 161 139 254 229 251 277
351 359 328 283 284 233 187 173 193 181 191 198 231 281 270 270 273 286 282 280 222 220 234 242 217 238 322 104 152 176 190 263 323 336 1 9 71 160 212 241 82 254 275 275
5 5 12 356 302 239 193 176 152 208 207 164 158 289 277 217 262 260 270 266 259 224 245 226 273 316 298 342 286 310 233 188 201 246 239 236 280 273 268 242 260 278 247 276
332 335 353 338 316 280 216 258 208 192 162 253 202 184 141 194 255 1 11 287 270 290 242 259 267 292 330 326 353 329 194 237 221 253 276 275 274 277 274 247 249 246 271 277
307 309 315 324 332 298 209 141 219 5 36 354 253 224 194 216 254 295 235 212 286 258 263 261 286 322 320 268 343 9 329 294 320 275 256 263 279 275 268 267 264 253 260 268
344 338 319 311 312 336 173 208 230 227 222 221 185 189 182 225 253 235 245 274 293 268 261 267 261 250 250 259 266 282 248 256 277 279 237 298 286 265 251 267 231 212 248 273
320 331 340 344 339 323 331 346 355 179 248 221 195 75 194 235 280 274 283 304 232 244 304 305 294 266 249 245 233 226 240 250 237 291 350 277 247 306 291 257 269 242 265 290
311 328 335 344 352 348 326 278 278 253 269 246 278 257 218 299 291 269 273 274 268 288 309 335 321 311 297 241 230 226 214 208 225 249 225 289 304 292 349 351 297 235 242 306
300 309 313 329 325 334 349 346 248 244 271 234 262 294 252 241 276 301 251 285 288 287 198 190 247 244 356 293 323 354 198 209 205 180 242 247 237 326 35 340 288 199 165 302
270 277 286 301 317 318 292 284 296 259 247 263 265 232 195 194 237 247 306 339 302 236 189 208 240 248 217 228 213 194 177 180 218 228 249 272 243 254 298 207 261 317 326 287
266 270 271 278 281 283 286 279 270 270 251 260 258 269 246 241 247 230 304 343 249 293 171 198 213 224 219 224 208 191 210 199 196 213 233 270 237 80 181 239 312 303 326 313
269 273 273 274 278 278 278 270 276 277 274 259 275 275 265 257 265 255 236 238 274 272 244 235 285 255 232 207 246 199 236 222 203 196 216 254 209 255 269 282 284 300 312 303
264 264 272 280 278 276 280 282 281 273 270 279 267 264 279 268 258 259 239 250 239 240 247 320 230 257 267 219 235 222 252 211 229 255 259 266 271 273 276 274 267 290 299 289
264 260 258 262 272 275 279 280 284 285 282 251 276 281 280 287 252 261 248 252 241 241 235 235 244 242 195 256 291 271 223 136 218 256 258 272 276 271 276 288 258 260 283 275
266 269 262 258 260 262 267 268 269 267 248 265 279 286 280 281 266 268 257 250 243 238 233 220 236 241 245 251 276 268 207 211 213 250 246 252 270 265 271 260 237 257 269 262
268 266 266 261 259 265 275 298 285 263 251 254 259 270 270 268 281 269 262 254 234 227 231 224 238 236 222 236 232 247 238 242 247 253 268 259 258 266 249 229 242 255 264 262
269 267 265 264 259 255 243 235 264 289 289 285 319 290 265 260 292 277 272 255 222 219 229 235 239 237 211 245 245 141 226 232 260 263 274 246 221 226 224 225 235 247 252 255
271 272 269 263 262 262 257 256 260 266 271 271 266 264 275 252 253 249 233 234 217 209 218 222 219 231 225 245 252 245 250 260 262 261 237 241 256 234 226 218 219 225 243 254
285 281 270 265 252 251 263 282 276 262 234 236 226 210 277 240 248 243 255 235 247 235 213 206 168 207 217 229 213 229 243 227 244 257 244 236 237 220 211 219 233 244 242 242
288 274 254 234 238 262 271 282 225 212 210 220 249 238 237 250 268 272 285 233 226 238 215 176 230 241 244 246 247 253 271 259 244 231 223 225 229 225 227 239 239 236 235 231
278 214 216 208 190 257 230 252 218 207 241 225 233 230 243 241 236 242 252 266 277 247 191 200 215 248 233 235 236 245 247 253 238 226 230 237 236 220 209 213 223 244 251 246
229 197 178 178 203 210 105 238 284 246 236 213 203 235 222 232 217 202 223 221 241 256 149 218 245 248 236 220 224 223 228 229 207 210 221 213 207 202 207 226 246 253 250 236
233 184 172 169 197 178 208 238 275 262 292 342 329 297 241 183 190 195 226 229 221 135 206 229 231 17 36 219 220 216 217 203 200 207 210 218 223 229 241 248 246 245 240 220
192 155 168 203 239 231 199 199 332 318 306 323 308 297 265 195 193 235 231 226 156 221 259 241 274 336 155 149 154 171 175 187 203 214 220 226 231 230 227 220 216 213 197 189
188 182 208 215 229 253 261 271 288 295 318 302 316 276 237 218 240 186 114 183 238 211 235 245 280 137 148 151 159 166 172 177 184 189 194 198 194 187 180 172 170 168 162 162
216 219 241 246 285 268 266 291 300 316 313 312 265 249 258 214 216 175 207 156 224 247 248 202 155 143 141 141 144 146 147 151 151 151 154 154 149 151 146 137 133 132 133 137
222 242 239 255 279 277 282 272 308 306 321 257 276 251 233 286 192 234 182 209 283 157 133 149 152 148 138 141 142 139 141 142 142 140 136 135 133 132 131 126 121 126 128 130
Height
1527 1524 1522 1522 1522 1521 1521 1522 1526 1524 1525 1528 1528 1527 1527 1526 1524 1525 1523 1522 1521 1522 1522 1522 1523 1520 1514 1510 1510 1515 1513 1519 1528 1514 1500 1503 1505 1508 1512 1533 1522 1519 1506 1452
1527 1525 1522 1522 1521 1520 1520 1521 1524 1524 1526 1522 1526 1526 1526 1525 1528 1526 1524 1521 1520 1518 1521 1521 1519 1515 1511 1507 1509 1513 1512 1520 1530 1515 1507 1501 1503 1503 1506 1510 1515 1496 1502 1451
1528 1525 1523 1522 1522 1520 1521 1522 1523 1524 1523 1522 1525 1527 1525 1525 1526 1525 1523 1522 1520 1519 1520 1517 1515 1514 1511 1510 1512 1512 1512 1516 1516 1521 1513 1509 1509 1504 1502 1507 1507 1487 1475 1448
1528 1527 1525 1524 1522 1520 1522 1520 1520 1520 1520 1523 1523 1526 1526 1525 1526 1527 1524 1521 1520 1519 1522 1518 1513 1513 1515 1511 1510 1510 1511 1513 1514 1510 1508 1505 1499 1496 1491 1495 1483 1492 1451 1456
1528 1526 1525 1523 1522 1520 1521 1522 1521 1520 1521 1522 1525 1524 1520 1521 1523 1526 1522 1526 1523 1524 1522 1517 1518 1519 1518 1517 1513 1515 1511 1511 1511 1509 1505 1501 1494 1489 1475 1473 1468 1467 1457 1446
1527 1525 1524 1522 1520 1520 1519 1519 1520 1521 1521 1522 1523 1520 1521 1522 1523 1522 1521 1522 1522 1520 1517 1516 1516 1518 1517 1518 1516 1515 1514 1514 1514 1498 1501 1502 1485 1465 1464 1462 1459 1455 1452 1429
1525 1523 1522 1520 1519 1519 1520 1520 1521 1522 1519 1520 1520 1519 1520 1521 1522 1522 1519 1520 1521 1516 1515 1514 1511 1510 1509 1508 1507 1507 1508 1511 1514 1500 1500 1489 1464 1457 1456 1455 1443 1444 1437 1433
1523 1522 1521 1520 1519 1519 1519 1520 1522 1521 1521 1520 1520 1518 1519 1519 1519 1522 1519 1515 1514 1514 1513 1512 1510 1507 1503 1495 1491 1493 1496 1503 1507 1499 1502 1469 1463 1454 1451 1450 1439 1431 1432 1431
1520 1520 1520 1519 1519 1520 1519 1519 1520 1521 1520 1518 1519 1518 1518 1519 1519 1519 1514 1510 1509 1511 1511 1513 1510 1508 1501 1499 1490 1489 1490 1492 1496 1499 1489 1484 1457 1451 1449 1449 1443 1428 1431 1430
1518 1518 1519 1518 1518 1518 1518 1518 1518 1519 1519 1517 1516 1516 1517 1517 1517 1517 1514 1512 1508 1506 1509 1511 1507 1502 1498 1498 1491 1489 1492 1493 1488 1486 1478 1466 1452 1448 1450 1457 1445 1430 1431 1430
1514 1515 1515 1515 1515 1515 1516 1515 1516 1517 1515 1513 1512 1512 1513 1513 1514 1515 1513 1514 1506 1506 1510 1506 1501 1498 1489 1485 1480 1483 1482 1490 1486 1481 1477 1464 1441 1447 1452 1441 1434 1432 1430 1428
1510 1510 1511 1511 1511 1511 1512 1512 1512 1512 1511 1509 1506 1505 1505 1506 1507 1511 1510 1510 1505 1503 1498 1495 1493 1485 1482 1474 1472 1467 1476 1467 1472 1469 1457 1442 1440 1439 1438 1436 1433 1431 1429 1428
1505 1506 1507 1506 1507 1507 1508 1507 1507 1507 1504 1501 1497 1494 1496 1498 1497 1500 1504 1499 1500 1498 1498 1497 1494 1490 1476 1470 1463 1460 1457 1455 1457 1459 1446 1443 1436 1436 1433 1432 1430 1428 1426 1425
1500 1501 1501 1502 1503 1503 1504 1503 1503 1503 1502 1495 1489 1489 1487 1488 1490 1490 1487 1484 1491 1492 1494 1494 1488 1482 1471 1463 1462 1459 1454 1453 1450 1444 1442 1440 1434 1431 1427 1425 1423 1423 1423 1423
1494 1495 1496 1497 1497 1498 1498 1497 1497 1497 1501 1491 1484 1483 1478 1478 1477 1477 1477 1478 1480 1483 1485 1479 1474 1468 1471 1460 1461 1452 1445 1444 1445 1435 1432 1433 1426 1424 1422 1420 1421 1420 1419 1420
1489 1489 1490 1491 1493 1494 1494 1492 1489 1488 1489 1489 1480 1470 1464 1467 1468 1465 1465 1464 1468 1472 1469 1464 1458 1458 1461 1449 1439 1413 1432 1431 1432 1427 1426 1425 1422 1423 1418 1418 1418 1417 1417 1417
1484 1484 1485 1486 1487 1488 1489 1488 1486 1485 1486 1482 1473 1468 1460 1458 1458 1456 1453 1453 1453 1455 1456 1449 1448 1446 1449 1435 1416 1415 1416 1418 1420 1419 1420 1418 1415 1413 1414 1414 1415 1415 1415 1414
1479 1479 1480 1481 1481 1481 1479 1478 1481 1483 1484 1483 1474 1465 1458 1454 1450 1449 1446 1443 1438 1436 1435 1432 1433 1436 1433 1416 1398 1409 1410 1413 1414 1410 1410 1410 1410 1409 1409 1410 1411 1412 1413 1412
1473 1473 1474 1474 1475 1473 1471 1474 1475 1475 1480 1472 1464 1463 1456 1446 1446 1444 1439 1434 1430 1424 1417 1417 1419 1415 1403 1392 1395 1396 1398 1400 1398 1401 1403 1405 1404 1405 1405 1406 1407 1408 1410 1410
1468 1469 1470 1468 1467 1469 1470 1468 1468 1466 1463 1459 1450 1449 1444 1446 1442 1438 1437 1428 1421 1410 1406 1407 1402 1393 1388 1386 1385 1386 1387 1390 1393 1395 1398 1400 1400 1400 1401 1402 1403 1404 1406 1406
1465 1465 1464 1465 1466 1467 1467 1464 1461 1456 1450 1441 1433 1435 1431 1435 1437 1436 1435 1423 1412 1396 1395 1396 1392 1383 1369 1374 1375 1379 1382 1383 1384 1389 1392 1393 1394 1395 1396 1398 1399 1401 1402 1403
1461 1462 1462 1463 1464 1464 1465 1463 1454 1446 1435 1424 1423 1421 1421 1421 1424 1427 1422 1417 1408 1388 1388 1388 1385 1366 1359 1360 1363 1370 1374 1378 1381 1385 1387 1390 1392 1393 1394 1395 1396 1397 1398 1400
1457 1457 1459 1460 1462 1462 1462 1469 1453 1440 1427 1424 1420 1418 1409 1412 1415 1415 1410 1398 1388 1389 1389 1383 1369 1363 1362 1361 1363 1366 1371 1375 1379 1382 1385 1387 1389 1390 1392 1392 1393 1394 1395 1396
1450 1451 1456 1456 1463 1452 1447 1446 1441 1438 1432 1427 1422 1413 1406 1402 1404 1397 1391 1390 1389 1394 1392 1377 1367 1364 1364 1365 1366 1368 1370 1374 1377 1380 1382 1384 1386 1388 1389 1390 1391 1392 1393 1394
1447 1448 1450 1449 1436 1436 1436 1436 1435 1433 1430 1425 1419 1412 1404 1395 1390 1384 1389 1390 1390 1383 1373 1367 1366 1365 1366 1366 1367 1369 1371 1373 1375 1377 1379 1382 1384 1386 1388 1389 1390 1391 1392 1394
1443 1442 1440 1434 1435 1431 1431 1429 1428 1428 1424 1420 1414 1406 1392 1382 1378 1379 1378 1384 1379 1369 1368 1366 1366 1366 1367 1367 1368 1370 1372 1374 1376 1378 1380 1382 1384 1386 1388 1389 1391 1392 1394 1396
1439 1434 1430 1430 1429 1427 1425 1424 1424 1424 1422 1419 1408 1394 1379 1371 1377 1373 1372 1373 1368 1367 1367 1367 1367 1368 1369 1370 1371 1372 1374 1376 1378 1380 1381 1383 1385 1387 1389 1390 1393 1395 1397 1399